Sioux City, IA

3:24 PM CST on December 14, 2019 (GMT -0600)
Sioux Gateway

Weather History for KSUX - October, 2019

Change the Weather History Date:

Monday, October 7, 2019

  Actual Average Record
Temperature  
Mean Temperature 54 °F 54 °F  
Max Temperature 72 °F 67 °F 89 °F (1980)
Min Temperature 35 °F 41 °F 15 °F (2012)
Degree Days  
Heating Degree Days 12 11  
Month to date heating degree days 98 71  
Since 1 July heating degree days 134 218  
Cooling Degree Days 0 1  
Month to date cooling degree days 0 7  
Year to date cooling degree days 910 868  
Growing Degree Days 4 (Base 50)    
Moisture  
Dew Point 40 °F    
Average Humidity 66    
Maximum Humidity 100    
Minimum Humidity 34    
Precipitation  
Precipitation 0.00 in 0.08 in 2.34 in (1970)
Month to date precipitation 2.00 0.62  
Year to date precipitation 30.11 24.12  
Snow  
Snow 0.00 in 0.10 in 0.00 in ()
Month to date snowfall 0.0 0.1  
Since 1 July snowfall 0.0 0.1  
Since 1 September snowfall 0.0 0.1  
Snow Depth 0.00 in    
Sea Level Pressure  
Sea Level Pressure 30.18 in    
Wind  
Wind Speed 4 mph ()    
Max Wind Speed 20 mph    
Max Gust Speed 27 mph    
Visibility 10.0 miles    
Events      
T = Trace of Precipitation, MM = Missing Value Source: Averaged Metar Reports

Daily Weather History Graph

Daily Weather History Graph

Search for Another Location

Airport or City:

Astronomy

Oct. 07, 2019 Rise Set
Actual Time 7:29 AM CDT 6:56 PM CDT
Civil Twilight 7:00 AM CDT 7:25 PM CDT
Nautical Twilight 6:28 AM CDT 7:57 PM CDT
Astronomical Twilight 5:55 AM CDT 8:30 PM CDT
Moon 4:27 PM CDT (10/7) 1:14 AM CDT (10/7)
Length of Visible Light 12h 24m
Length of Day
11h 27m
Waxing Gibbous, 69% of the Moon is Illuminated
Oct 7
Waxing Gibbous
Oct 13
Full
Oct 21
Last Quarter
Oct 27
New
Nov 4
First Quarter

Hourly Weather History & Observations

Time (CDT) Temp. Windchill Dew Point Humidity Pressure Visibility Wind Dir Wind Speed Gust Speed Precip Events Conditions
12:52 AM 43.0 °F - 37.0 °F 80% 30.22 in 10.0 mi Calm Calm - N/A   Clear
1:52 AM 43.0 °F - 37.9 °F 82% 30.23 in 10.0 mi Calm Calm - N/A   Clear
2:52 AM 41.0 °F - 37.0 °F 86% 30.24 in 10.0 mi Calm Calm - N/A   Clear
3:52 AM 37.9 °F - 37.0 °F 97% 30.24 in 10.0 mi Calm Calm - N/A   Clear
4:52 AM 39.9 °F 36.7 °F 37.0 °F 89% 30.24 in 10.0 mi North 4.6 mph - N/A   Clear
5:52 AM 36.0 °F - 34.0 °F 93% 30.25 in 10.0 mi Calm Calm - N/A   Clear
6:52 AM 36.0 °F - 34.0 °F 93% 30.27 in 10.0 mi Calm Calm - N/A   Clear
7:52 AM 36.0 °F 33.3 °F 34.0 °F 93% 30.28 in 10.0 mi ESE 3.5 mph - N/A   Clear
8:52 AM 44.1 °F 42.5 °F 39.9 °F 85% 30.28 in 10.0 mi East 3.5 mph - N/A   Clear
9:52 AM 51.1 °F - 43.0 °F 74% 30.27 in 10.0 mi SE 3.5 mph - N/A   Clear
10:52 AM 57.9 °F - 44.1 °F 60% 30.26 in 10.0 mi ESE 4.6 mph - N/A   Clear
11:52 AM 63.0 °F - 43.0 °F 48% 30.24 in 10.0 mi South 8.1 mph - N/A   Clear
12:52 PM 66.9 °F - 44.1 °F 44% 30.21 in 10.0 mi South 8.1 mph - N/A   Clear
1:52 PM 70.0 °F - 43.0 °F 38% 30.16 in 9.0 mi South 9.2 mph - N/A   Clear
2:52 PM 71.1 °F - 41.0 °F 34% 30.13 in 10.0 mi South 16.1 mph 24.2 mph N/A   Clear
3:52 PM 71.1 °F - 41.0 °F 34% 30.11 in 10.0 mi SSW 15.0 mph 25.3 mph N/A   Clear
4:52 PM 71.1 °F - 41.0 °F 34% 30.09 in 10.0 mi South 16.1 mph - N/A   Clear
5:52 PM 69.1 °F - 42.1 °F 38% 30.07 in 10.0 mi South 11.5 mph - N/A   Clear
6:52 PM 63.0 °F - 42.1 °F 46% 30.07 in 10.0 mi South 9.2 mph - N/A   Clear
8:52 PM 57.9 °F - 41.0 °F 53% 30.07 in 10.0 mi SSE 6.9 mph - N/A   Clear
9:52 PM 52.0 °F - 41.0 °F 66% 30.08 in 10.0 mi SE 8.1 mph - N/A   Clear
10:52 PM 48.0 °F - 41.0 °F 77% 30.07 in 10.0 mi SE 8.1 mph - N/A   Clear
11:52 PM 48.0 °F - 41.0 °F 77% 30.06 in 10.0 mi SE 6.9 mph - N/A   Clear